CAPE
nan nan nan nan nan nan nan nan nan nan nan nan nan nan nan nan nan nan nan nan nan nan nan nan nan nan nan nan nan nan nan nan nan nan nan nan nan nan nan nan nan nan nan nan nan nan 7 40 40 69 87 71 59 59 61 63 63 63 62 53 53 49 55 54 54 57 67 91 125 125 121 78 22 22 1 2 4 4 1 nan nan nan 13 87 87 198
nan nan nan nan nan nan nan nan nan nan nan nan nan nan nan nan nan nan nan nan nan nan nan nan nan nan nan nan nan nan nan nan nan nan nan nan nan nan nan nan nan nan nan nan nan nan nan 16 16 56 77 67 51 51 45 42 42 42 35 28 28 23 17 25 25 35 45 59 70 70 73 36 3 3 nan nan 4 4 8 1 1 0 13 101 101 250
nan nan nan nan nan nan nan nan nan nan nan nan nan nan nan nan nan nan nan nan nan nan nan nan nan nan nan nan nan nan nan nan nan nan nan nan nan nan nan nan nan nan nan nan nan nan nan 5 5 47 73 48 31 31 32 35 35 28 18 11 11 6 1 0 0 7 15 18 17 17 16 9 1 1 nan 0 3 3 13 11 11 0 28 149 149 313
nan nan nan nan nan nan nan nan nan nan nan nan nan nan nan nan nan nan nan nan nan nan nan nan nan nan nan nan nan nan nan nan nan nan nan nan nan nan nan nan nan nan nan 0 0 nan nan 5 5 40 66 54 37 37 27 30 30 23 12 3 3 0 nan nan nan 0 2 4 0 0 0 0 2 2 6 10 7 7 23 26 26 6 46 169 169 309
nan nan nan nan nan nan nan nan nan nan nan nan nan nan nan nan nan nan nan nan nan nan nan nan nan nan nan nan nan nan nan nan 0 0 2 2 1 1 1 1 1 2 6 8 8 8 6 18 18 52 62 55 40 40 39 23 23 24 16 3 3 nan nan nan nan 0 0 0 nan nan nan nan 2 2 7 9 17 17 37 42 42 19 39 160 160 315
nan nan nan nan nan nan nan nan nan nan nan nan nan nan nan nan nan nan nan nan nan nan nan nan nan nan nan nan nan nan nan 0 0 0 1 1 1 1 2 3 3 8 15 23 23 28 31 46 46 75 83 69 50 50 45 26 26 24 27 6 6 nan nan nan nan nan nan 0 0 0 0 0 1 1 2 7 10 10 35 62 62 56 52 125 125 309
nan nan nan nan nan nan nan nan nan nan nan nan nan nan nan nan nan nan nan nan nan nan nan nan nan nan nan nan nan nan nan nan nan nan nan nan nan nan nan 3 3 11 21 32 32 45 51 62 62 82 95 93 67 67 60 44 44 20 31 16 16 2 nan nan nan nan nan 0 1 1 0 nan nan nan nan 1 6 6 13 63 63 113 91 110 110 248
nan nan nan nan nan nan nan nan nan nan nan nan nan nan nan nan nan nan nan nan nan nan nan nan nan nan nan nan nan nan nan nan nan nan nan nan nan nan nan 5 5 27 43 54 54 64 70 72 72 69 75 92 103 103 93 52 52 24 25 17 17 3 1 nan nan nan nan nan 0 0 1 nan nan nan nan nan nan nan 0 12 12 92 182 186 186 220
0 0 nan nan nan nan nan nan nan nan nan nan nan nan nan nan nan nan nan nan nan nan nan nan nan nan nan nan nan nan nan nan nan nan nan nan nan nan nan 13 13 41 63 67 67 71 67 52 52 47 43 53 71 71 71 49 49 25 14 12 12 8 3 0 0 nan nan nan 0 0 1 0 nan nan nan nan nan nan nan 0 0 23 126 203 203 253
nan nan nan nan nan nan nan nan nan nan nan nan nan nan nan nan nan nan nan nan nan nan nan nan nan nan nan nan nan nan nan nan 2 2 5 2 13 13 16 36 36 57 77 77 77 71 57 39 39 29 26 23 28 28 40 38 38 28 11 12 12 10 7 4 4 0 nan nan nan nan 2 1 nan nan nan nan nan nan nan nan nan 1 19 109 109 250
nan nan nan nan nan nan nan nan nan nan nan nan nan nan nan nan nan nan nan nan nan nan nan nan nan nan nan nan nan nan nan nan nan nan nan 4 19 19 50 70 70 84 81 74 74 56 39 25 25 22 19 13 14 14 15 23 23 30 29 13 13 12 13 10 10 5 1 nan nan nan 2 3 0 0 0 nan nan nan nan nan nan nan nan 11 11 117
nan nan nan nan nan nan nan nan nan nan nan nan nan nan nan nan nan nan nan nan nan nan nan nan nan nan nan nan nan nan nan nan nan nan nan nan 5 5 35 44 44 50 42 36 36 25 21 15 15 14 14 14 15 15 9 9 9 18 34 37 37 29 13 15 15 13 8 3 0 0 2 3 1 1 0 0 nan nan nan nan nan nan nan nan nan 18
nan nan nan nan nan nan nan nan nan nan nan nan nan nan nan nan nan nan nan nan nan nan nan nan nan nan nan nan nan nan nan nan nan nan nan nan 3 3 11 5 5 nan nan nan nan nan 1 10 10 11 13 16 16 16 11 8 8 6 15 35 35 57 45 30 30 24 21 13 8 8 3 3 1 1 0 0 nan nan nan nan nan nan nan nan nan 0
1 1 1 0 0 nan nan nan nan nan nan nan nan nan nan nan nan nan nan nan nan nan nan nan nan nan nan nan nan nan nan nan nan nan nan nan nan nan nan nan nan nan nan nan nan nan nan nan nan nan 9 14 18 18 13 10 10 6 8 20 20 46 68 54 54 45 32 26 17 17 10 6 3 3 2 nan nan nan nan nan nan nan nan nan nan nan
2 1 1 1 1 0 nan nan nan nan nan nan nan nan nan nan nan nan nan nan nan nan nan nan nan nan nan nan nan nan nan nan nan nan nan nan nan nan nan nan nan nan nan nan nan nan nan nan nan nan nan 8 12 12 14 13 13 12 10 14 14 27 51 63 63 61 49 39 29 29 25 13 10 10 3 nan nan nan nan nan nan nan nan nan nan nan
2 2 2 3 3 2 0 nan nan nan nan nan nan nan nan nan nan nan nan nan nan nan nan nan nan nan nan nan nan nan nan nan nan nan nan nan nan nan nan nan nan nan nan nan nan nan nan nan nan nan nan 14 27 27 23 20 20 23 19 22 22 23 28 40 40 57 68 46 41 41 35 22 13 13 3 nan nan nan nan nan nan nan nan nan nan nan
6 5 4 4 4 3 nan nan nan nan nan nan nan nan nan nan nan nan nan nan nan nan nan nan nan nan nan nan nan nan nan nan nan nan nan nan nan nan nan nan nan nan nan nan nan nan nan nan nan nan nan 11 28 28 29 35 35 33 32 29 29 27 20 17 17 35 61 62 53 53 49 28 13 13 1 nan nan nan nan nan nan nan nan nan nan nan
7 6 5 3 3 1 nan nan nan nan nan nan nan nan nan nan nan nan 0 1 1 1 nan nan nan nan nan nan nan nan nan nan nan nan nan nan nan nan nan nan nan nan nan nan nan nan nan nan nan nan nan 5 18 18 37 52 52 46 39 32 32 28 22 15 15 13 34 61 72 72 51 33 11 11 1 nan nan nan nan nan nan nan nan nan nan nan
3 nan nan nan nan nan nan nan nan nan nan nan nan nan nan nan 1 1 2 3 3 2 0 nan nan nan nan nan nan nan nan nan nan nan 1 0 nan nan nan nan nan nan nan nan nan nan nan nan nan nan nan 3 11 11 31 55 55 58 44 33 33 29 26 18 18 8 11 32 65 65 64 38 15 15 5 nan nan nan nan nan nan nan nan nan nan nan
nan nan nan nan nan nan nan nan nan nan 0 1 1 1 nan nan 0 0 2 3 3 3 1 1 1 1 0 nan nan nan nan nan nan nan 2 2 nan nan nan nan nan nan nan nan nan nan nan nan nan nan nan 0 7 7 15 35 35 48 44 34 34 27 23 22 22 12 6 10 34 34 61 49 13 13 6 0 0 0 1 1 1 1 0 nan nan nan
nan nan nan nan nan nan 0 nan nan nan 5 10 4 4 1 0 1 1 2 5 5 7 6 7 7 6 5 2 nan nan nan nan nan nan 3 3 nan nan nan nan nan nan nan nan nan nan nan nan nan nan nan nan 1 1 3 9 9 20 28 26 26 19 16 18 18 15 8 6 17 17 42 51 24 24 7 1 4 4 5 3 3 2 2 0 0 0
nan nan nan nan nan nan 6 1 8 8 13 14 6 6 5 3 4 4 7 10 10 15 18 15 15 7 1 0 nan nan nan nan nan nan 4 7 1 1 nan nan nan nan nan nan nan nan nan nan nan nan nan nan nan nan nan 0 0 1 6 10 10 8 9 14 14 19 14 11 9 9 23 57 47 47 16 3 5 5 3 2 2 1 1 1 1 1
nan nan nan nan nan 1 5 0 2 2 12 14 15 15 11 11 11 11 12 13 13 15 18 12 12 2 1 0 nan nan nan nan nan nan 5 15 3 3 nan nan nan nan nan nan nan nan nan nan nan nan nan nan nan nan nan nan nan 0 1 2 2 5 10 15 15 20 22 17 12 12 17 49 62 62 40 10 5 5 2 nan nan nan 0 1 1 1
nan 1 2 2 2 3 4 4 5 5 11 23 26 26 22 13 7 7 4 8 8 14 16 14 14 10 7 1 nan nan nan nan nan nan 9 26 9 9 nan nan nan nan nan nan nan nan nan nan nan nan nan nan nan nan nan nan nan 1 3 5 5 9 16 20 20 24 29 27 18 18 15 38 57 57 49 19 6 6 1 nan nan nan nan nan nan 0
2 4 7 9 9 17 18 15 28 28 26 23 18 18 11 16 28 28 23 24 24 26 23 22 22 20 1 nan nan nan nan nan nan nan 9 13 2 2 nan nan nan nan nan nan nan nan nan nan nan nan nan nan nan nan nan nan nan 3 10 16 16 25 28 31 31 34 39 37 31 31 20 32 63 63 50 24 8 8 4 nan nan nan nan nan nan nan
21 16 16 31 31 59 77 88 86 86 61 26 29 29 33 28 15 15 11 15 15 23 23 19 19 9 nan nan 0 0 nan nan nan nan 1 10 1 1 nan nan nan nan nan nan nan nan nan nan nan nan nan nan nan nan 3 4 4 10 19 28 28 33 43 50 50 48 46 45 35 35 28 47 69 69 56 24 12 12 8 2 2 nan nan nan nan nan
55 56 62 70 70 71 73 75 82 82 95 79 58 58 47 12 6 6 1 7 7 12 18 14 14 3 nan 1 1 1 nan nan nan nan nan 7 6 6 nan nan nan nan nan nan nan nan nan nan nan nan nan nan nan nan 9 24 24 43 51 57 57 58 62 65 65 58 46 40 31 31 34 61 91 91 55 33 16 16 11 7 7 2 0 nan nan nan
57 57 53 56 56 50 51 53 63 63 72 93 128 128 94 19 9 9 6 8 8 10 15 16 16 12 5 6 0 0 nan 0 nan nan nan 16 17 17 nan nan nan nan nan nan nan nan nan nan nan nan nan nan nan nan 1 62 62 58 45 36 36 75 90 89 89 73 55 31 27 27 47 85 110 110 69 41 33 33 19 14 14 7 2 1 1 1
44 39 36 35 35 34 37 42 49 49 65 78 99 99 74 11 12 12 17 12 12 8 15 14 14 14 11 9 2 2 0 2 2 2 nan 11 12 12 nan nan nan nan nan nan nan nan nan nan nan nan nan nan nan nan 5 58 58 50 27 4 4 5 43 94 94 101 87 73 56 56 77 113 104 104 73 45 41 41 38 26 26 16 7 4 4 3
8 13 14 18 18 20 22 12 34 34 59 63 76 76 52 0 5 5 5 0 0 3 6 9 9 12 15 11 8 8 2 nan nan nan nan 5 0 0 nan nan nan nan 13 20 20 5 nan nan nan nan nan nan nan nan nan nan nan nan nan nan nan nan 16 60 60 94 114 114 100 100 115 114 90 90 60 41 36 36 37 32 32 30 20 9 9 3
nan nan nan nan nan nan nan nan 2 2 34 46 46 46 15 nan nan nan nan nan nan 1 7 9 9 14 24 30 23 23 3 nan nan nan nan 6 3 3 nan 10 10 17 13 26 26 16 1 nan nan nan nan nan nan nan nan nan nan nan nan nan nan nan 4 42 42 82 110 114 121 121 115 94 67 67 44 26 27 27 25 23 23 28 23 12 12 3
nan nan nan nan nan nan nan nan nan nan nan nan nan nan 10 23 13 13 4 5 5 2 5 10 10 22 29 29 27 27 11 nan 0 0 10 18 27 27 34 33 33 31 6 8 8 18 15 8 8 9 nan nan nan nan nan nan nan nan nan nan nan nan nan 20 20 88 121 137 123 123 87 67 73 73 59 45 31 31 15 12 12 15 23 15 15 4
nan nan nan nan nan nan nan nan nan nan nan nan 0 0 2 5 23 23 19 15 15 11 16 14 14 24 13 9 9 9 6 3 12 12 45 22 33 33 25 19 19 12 11 20 20 31 34 20 20 14 nan nan nan nan nan nan nan nan nan nan nan nan nan 2 2 45 86 115 109 109 109 85 73 73 72 54 32 32 15 12 12 13 17 18 18 6
nan nan nan nan nan nan nan nan nan nan nan 0 1 1 1 nan nan nan nan nan nan nan nan 3 3 11 13 14 12 12 8 nan 4 4 24 37 27 27 23 20 20 19 28 26 26 17 14 8 8 4 1 nan nan nan nan nan nan nan nan nan nan nan nan nan nan 28 49 52 37 37 50 60 81 81 72 54 35 35 19 13 13 12 15 19 19 9
nan 0 nan nan nan nan nan nan 0 0 7 0 nan nan nan nan nan nan nan nan nan nan nan nan nan 0 7 15 25 25 11 nan 0 0 11 24 22 22 23 13 13 13 22 16 16 9 3 0 0 4 4 0 nan nan nan nan nan nan nan nan nan nan nan nan nan nan 14 21 16 16 7 20 31 31 37 46 39 39 20 13 13 14 17 19 19 17
1 1 1 0 0 4 10 17 21 21 5 nan nan nan nan nan nan nan nan nan nan nan nan nan nan nan 1 8 18 18 13 nan nan nan 6 12 20 20 17 8 8 9 10 9 9 6 8 2 2 3 4 0 nan nan nan nan nan nan nan nan nan nan nan nan nan nan nan 2 2 2 nan nan 5 5 11 22 21 21 16 18 18 18 19 26 26 21
6 9 7 6 6 15 23 29 16 16 nan nan nan nan nan nan nan nan nan nan nan nan nan nan nan nan nan nan 5 5 nan nan nan nan nan nan 8 8 10 6 6 7 10 8 8 9 10 8 8 6 0 nan nan nan nan nan nan nan nan nan nan nan nan nan nan nan nan nan nan nan nan nan nan nan 1 12 11 11 16 16 16 15 18 23 23 26
7 8 6 4 4 2 5 6 2 2 0 nan nan nan nan nan nan nan nan nan nan nan nan nan nan nan nan 0 nan nan nan nan nan nan nan nan nan nan nan 0 0 2 2 6 6 12 11 10 10 8 1 nan 0 0 nan nan nan nan nan nan nan nan nan nan nan nan nan nan nan nan nan nan nan nan nan 2 4 4 8 11 11 24 21 20 20 22
3 3 1 0 0 nan nan 0 nan nan nan nan nan nan nan 0 0 0 nan nan nan nan nan nan nan nan nan nan nan nan nan nan nan nan nan nan nan nan nan nan nan nan nan 0 0 4 7 8 8 9 7 2 nan nan nan nan nan nan nan nan nan nan nan nan nan nan nan nan nan nan nan nan nan nan nan nan nan nan 2 4 4 18 20 16 16 22
3 1 nan 0 0 nan 0 nan nan nan nan nan 2 2 9 22 11 11 nan nan nan nan nan nan nan nan nan nan nan nan nan nan nan nan nan nan nan nan nan nan nan nan nan nan nan nan 0 3 3 7 12 6 3 3 1 nan nan nan nan nan nan nan nan nan nan nan nan nan nan nan nan nan 8 8 12 11 9 9 8 9 9 19 36 17 17 6
3 nan 0 0 0 nan 0 nan nan nan nan nan 1 1 17 30 21 21 2 nan nan nan nan nan nan nan nan nan nan nan nan nan nan nan nan nan nan nan nan nan nan nan nan nan nan nan nan 0 0 4 6 4 5 5 3 0 0 2 5 0 0 nan nan nan nan nan nan nan nan nan nan 12 30 30 22 14 1 1 0 nan nan 3 34 24 24 5
6 2 1 nan nan nan nan nan nan nan nan nan 5 5 16 13 6 6 0 nan nan nan nan nan nan nan nan nan nan nan nan nan nan nan nan nan nan nan nan nan nan nan nan nan nan nan nan 1 1 2 2 3 5 5 3 0 0 1 3 0 0 nan nan nan nan nan nan nan nan nan 0 6 3 3 4 nan nan nan nan nan nan nan 18 38 38 17
2 1 0 nan nan nan nan 0 nan nan nan 2 4 4 1 nan nan nan 1 nan nan nan nan nan nan nan nan nan nan nan nan nan nan nan nan nan nan nan nan nan nan nan nan nan nan nan nan 1 1 0 nan 3 7 7 6 3 3 1 0 1 1 1 2 nan nan nan nan nan nan nan nan nan nan nan nan nan nan nan nan nan nan nan 4 27 27 24
0 0 nan 0 0 nan nan 0 nan nan nan 0 0 0 nan nan nan nan 1 nan nan 0 nan nan nan 1 0 nan nan nan nan nan nan nan nan nan nan nan nan nan nan nan nan nan nan nan nan nan nan nan nan 0 7 7 9 5 5 3 1 0 0 3 3 nan nan nan nan nan nan nan nan nan nan nan nan nan nan nan nan nan nan nan 1 13 13 19
nan nan 0 1 1 1 1 0 0 0 nan 0 nan nan nan nan nan nan 0 nan nan 0 nan 2 2 2 0 nan nan nan nan nan nan nan nan nan nan nan nan nan nan nan nan nan nan nan nan nan nan nan nan 0 3 3 6 5 5 4 4 3 3 1 nan nan nan nan nan nan nan nan nan nan nan nan nan nan nan nan nan nan nan nan nan 3 3 10
nan 0 1 1 1 1 3 2 1 1 nan nan nan nan nan nan nan nan nan nan nan nan nan 0 0 2 1 nan nan nan nan nan nan nan nan nan nan nan nan nan nan nan nan nan nan nan nan nan nan nan nan nan 0 0 2 5 5 5 5 8 8 2 nan nan nan nan nan nan nan nan nan nan nan nan 0 nan nan nan nan nan nan nan nan 0 0 4
nan 0 1 1 1 1 1 1 0 0 nan nan nan nan nan nan nan nan nan nan nan nan nan nan nan 0 1 1 nan nan nan nan nan nan nan nan nan nan nan nan nan nan nan nan nan nan nan nan nan nan nan nan nan nan nan 1 1 7 12 11 11 8 24 4 4 nan nan nan nan nan nan nan nan nan 1 nan nan nan nan nan nan nan nan nan nan 1
0 1 1 1 1 1 1 0 0 0 0 nan nan nan nan nan nan nan nan nan nan nan nan nan nan nan nan nan 0 0 nan nan nan nan nan nan nan nan nan nan nan nan nan nan nan nan nan nan nan nan nan nan nan nan nan nan nan 2 10 17 17 21 15 nan nan nan nan nan nan nan nan nan 1 1 1 nan nan nan nan nan nan nan nan nan nan 0
nan nan nan nan nan 0 1 0 1 1 0 nan 0 0 nan 3 26 26 0 nan nan nan nan nan nan nan nan nan nan nan nan nan nan nan nan nan nan nan nan nan nan nan nan nan nan nan nan nan nan nan nan nan nan nan nan nan nan nan 1 3 3 10 3 nan nan nan nan nan nan nan nan nan 1 1 2 1 nan nan nan nan nan nan nan nan nan nan
nan nan nan nan nan nan 0 1 2 2 2 1 1 1 0 1 0 0 nan nan nan nan nan nan nan nan nan nan nan nan nan nan nan nan nan nan nan nan nan nan nan nan nan nan nan nan nan nan nan nan nan nan nan nan nan nan nan nan nan nan nan nan nan nan nan nan nan nan nan nan nan nan nan nan 0 6 2 2 nan nan nan nan nan nan nan nan
nan nan nan nan nan nan 0 1 3 3 2 4 3 3 4 1 nan nan nan nan nan nan nan nan nan nan nan nan nan nan nan nan nan nan nan 0 3 3 1 nan nan 1 1 nan nan nan nan nan nan nan nan 10 nan nan 1 nan nan nan nan nan nan nan nan nan nan nan nan nan nan nan nan nan 1 1 7 13 5 5 nan nan nan nan nan nan nan nan
CIN
nan nan nan nan nan nan nan nan nan nan nan nan nan nan nan nan nan nan nan nan nan nan nan nan nan nan nan nan nan nan nan nan nan nan nan nan nan nan nan nan nan nan nan nan nan nan -7 -6 -6 -4 -3 -5 -7 -7 -7 -8 -8 -0 -6 -5 -5 -2 -0 -0 -0 -0 -0 -0 -0 -0 -0 -0 -1 -1 -21 -31 -36 -36 -36 nan nan nan -3 -1 -1 -0
nan nan nan nan nan nan nan nan nan nan nan nan nan nan nan nan nan nan nan nan nan nan nan nan nan nan nan nan nan nan nan nan nan nan nan nan nan nan nan nan nan nan nan nan nan nan nan -7 -7 -5 -4 -6 -9 -9 -11 -15 -15 -16 -0 -14 -14 -11 -7 -0 -0 -0 -0 -0 -0 -0 -0 -0 -5 -5 nan nan -27 -27 -25 -20 -20 -19 -0 -0 -0 -0
nan nan nan nan nan nan nan nan nan nan nan nan nan nan nan nan nan nan nan nan nan nan nan nan nan nan nan nan nan nan nan nan nan nan nan nan nan nan nan nan nan nan nan nan nan nan nan -8 -8 -6 -4 -2 -5 -5 -8 -15 -15 -24 -28 -29 -29 -27 -22 -14 -14 -0 -0 -0 -0 -0 -0 -1 -4 -4 nan -33 -8 -8 -0 -0 -0 -0 -0 -0 -0 -0
nan nan nan nan nan nan nan nan nan nan nan nan nan nan nan nan nan nan nan nan nan nan nan nan nan nan nan nan nan nan nan nan nan nan nan nan nan nan nan nan nan nan nan -1 -1 nan nan -7 -7 -8 -5 -2 -0 -0 -1 -9 -9 -25 -37 -43 -43 -41 nan nan nan -0 -0 -0 -2 -2 -3 -3 -2 -2 -1 -0 -0 -0 -0 -0 -0 -0 -0 -0 -0 -0
nan nan nan nan nan nan nan nan nan nan nan nan nan nan nan nan nan nan nan nan nan nan nan nan nan nan nan nan nan nan nan nan -0 -0 -0 -0 -0 -0 -0 -0 -0 -0 -0 -0 -0 -0 -1 -3 -3 -5 -6 -4 -3 -3 -0 -4 -4 -17 -38 -49 -49 nan nan nan nan -1 -1 -1 nan nan nan nan -1 -1 -0 -0 -0 -0 -0 -0 -0 -0 -0 -0 -0 -0
nan nan nan nan nan nan nan nan nan nan nan nan nan nan nan nan nan nan nan nan nan nan nan nan nan nan nan nan nan nan nan -0 -0 -0 -0 -0 -0 -0 -0 -0 -0 -0 -0 -0 -0 -0 -0 -1 -1 -3 -4 -4 -5 -5 -0 -1 -1 -11 -31 -49 -49 nan nan nan nan nan nan -2 -2 -2 -2 -2 -2 -2 -1 -0 -0 -0 -0 -0 -0 -0 -0 -0 -0 -0
nan nan nan nan nan nan nan nan nan nan nan nan nan nan nan nan nan nan nan nan nan nan nan nan nan nan nan nan nan nan nan nan nan nan nan nan nan nan nan -0 -0 -0 -0 -0 -0 -0 -0 -0 -0 -0 -4 -4 -4 -4 -3 -1 -1 -6 -22 -42 -42 -50 nan nan nan nan nan -2 -2 -2 -2 nan nan nan nan -1 -0 -0 -0 -0 -0 -0 -0 -0 -0 -0
nan nan nan nan nan nan nan nan nan nan nan nan nan nan nan nan nan nan nan nan nan nan nan nan nan nan nan nan nan nan nan nan nan nan nan nan nan nan nan -0 -0 -0 -0 -0 -0 -0 -0 -0 -0 -0 -0 -0 -0 -0 -0 -0 -0 -2 -13 -32 -32 -50 -54 nan nan nan nan nan -2 -2 -2 nan nan nan nan nan nan nan -0 -0 -0 -0 -0 -0 -0 -0
-3 -0 nan nan nan nan nan nan nan nan nan nan nan nan nan nan nan nan nan nan nan nan nan nan nan nan nan nan nan nan nan nan nan nan nan nan nan nan nan -0 -0 -0 -0 -0 -0 -0 -0 -0 -0 -0 -0 -0 -0 -0 -0 -0 -0 -0 -8 -22 -22 -39 -52 -56 -56 nan nan nan -2 -2 -2 -3 nan nan nan nan nan nan nan -0 -0 -0 -0 -0 -0 -0
nan nan nan nan nan nan nan nan nan nan nan nan nan nan nan nan nan nan nan nan nan nan nan nan nan nan nan nan nan nan nan nan -0 -0 -0 -0 -0 -0 -0 -0 -0 -0 -0 -0 -0 -0 -0 -0 -0 -0 -0 -0 -0 -0 -0 -0 -0 -0 -2 -13 -13 -28 -43 -51 -51 -54 nan nan nan nan -2 -2 nan nan nan nan nan nan nan nan nan -0 -0 -0 -0 -0
nan nan nan nan nan nan nan nan nan nan nan nan nan nan nan nan nan nan nan nan nan nan nan nan nan nan nan nan nan nan nan nan nan nan nan -1 -0 -0 -0 -0 -0 -0 -0 -0 -0 -0 -0 -0 -0 -0 -0 -0 -0 -0 -0 -0 -0 -0 -0 -1 -1 -12 -21 -36 -36 -43 -45 nan nan nan -2 -2 -3 -3 -41 nan nan nan nan nan nan nan nan -0 -0 -0
nan nan nan nan nan nan nan nan nan nan nan nan nan nan nan nan nan nan nan nan nan nan nan nan nan nan nan nan nan nan nan nan nan nan nan nan -15 -15 -5 -4 -4 -0 -0 -0 -0 -0 -0 -0 -0 -0 -0 -0 -0 -0 -0 -0 -0 -0 -0 -0 -0 -0 -5 -13 -13 -21 -1 -1 -1 -1 -1 -1 -3 -3 -35 -49 nan nan nan nan nan nan nan nan nan -0
nan nan nan nan nan nan nan nan nan nan nan nan nan nan nan nan nan nan nan nan nan nan nan nan nan nan nan nan nan nan nan nan nan nan nan nan -18 -18 -15 -19 -19 nan nan nan nan nan -0 -0 -0 -0 -0 -0 -0 -0 -0 -1 -1 -0 -0 -0 -0 -0 -0 -0 -0 -1 -0 -0 -1 -1 -1 -2 -3 -3 -9 -44 nan nan nan nan nan nan nan nan nan -0
-9 -13 -11 -14 -14 nan nan nan nan nan nan nan nan nan nan nan nan nan nan nan nan nan nan nan nan nan nan nan nan nan nan nan nan nan nan nan nan nan nan nan nan nan nan nan nan nan nan nan nan nan -0 -1 -1 -1 -2 -0 -0 -0 -0 -0 -0 -0 -0 -0 -0 -0 -0 -0 -0 -0 -1 -2 -4 -4 -7 nan nan nan nan nan nan nan nan nan nan nan
-13 -13 -12 -13 -13 -19 nan nan nan nan nan nan nan nan nan nan nan nan nan nan nan nan nan nan nan nan nan nan nan nan nan nan nan nan nan nan nan nan nan nan nan nan nan nan nan nan nan nan nan nan nan -10 -9 -9 -5 -3 -3 -0 -0 -0 -0 -0 -0 -0 -0 -0 -0 -0 -1 -1 -1 -2 -4 -4 -9 nan nan nan nan nan nan nan nan nan nan nan
-12 -11 -11 -9 -9 -10 -11 nan nan nan nan nan nan nan nan nan nan nan nan nan nan nan nan nan nan nan nan nan nan nan nan nan nan nan nan nan nan nan nan nan nan nan nan nan nan nan nan nan nan nan nan -5 -0 -0 -0 -0 -0 -0 -0 -0 -0 -0 -0 -0 -0 -0 -0 -0 -1 -1 -1 -2 -4 -4 -10 nan nan nan nan nan nan nan nan nan nan nan
-11 -9 -8 -7 -7 -8 nan nan nan nan nan nan nan nan nan nan nan nan nan nan nan nan nan nan nan nan nan nan nan nan nan nan nan nan nan nan nan nan nan nan nan nan nan nan nan nan nan nan nan nan nan -3 -0 -0 -0 -0 -0 -0 -0 -0 -0 -0 -0 -0 -0 -0 -0 -0 -0 -0 -1 -2 -4 -4 -11 nan nan nan nan nan nan nan nan nan nan nan
-8 -7 -8 -9 -9 -7 nan nan nan nan nan nan nan nan nan nan nan nan -17 -11 -11 -10 nan nan nan nan nan nan nan nan nan nan nan nan nan nan nan nan nan nan nan nan nan nan nan nan nan nan nan nan nan -0 -0 -0 -0 -0 -0 -0 -0 -0 -0 -0 -0 -0 -0 -0 -0 -0 -0 -0 -2 -4 -6 -6 -19 nan nan nan nan nan nan nan nan nan nan nan
-6 nan nan nan nan nan nan nan nan nan nan nan nan nan nan nan -14 -14 -10 -10 -10 -12 -13 nan nan nan nan nan nan nan nan nan nan nan -10 -9 nan nan nan nan nan nan nan nan nan nan nan nan nan nan nan -0 -0 -0 -0 -0 -0 -0 -0 -0 -0 -0 -0 -0 -0 -0 -0 -0 -0 -0 -0 -2 -9 -9 -23 nan nan nan nan nan nan nan nan nan nan nan
nan nan nan nan nan nan nan nan nan nan -3 -6 -10 -10 nan nan -10 -10 -9 -11 -11 -14 -18 -19 -19 -16 -18 nan nan nan nan nan nan nan -7 -7 nan nan nan nan nan nan nan nan nan nan nan nan nan nan nan -2 -0 -0 -0 -0 -0 -0 -0 -0 -0 -0 -0 -0 -0 -0 -0 -0 -0 -0 -0 -0 -6 -6 -27 -33 -15 -15 -6 -4 -4 -4 -4 nan nan nan
nan nan nan nan nan nan -4 nan nan nan -8 -5 -10 -10 -10 -14 -11 -11 -12 -13 -13 -14 -18 -14 -14 -14 -18 -21 nan nan nan nan nan nan -6 -6 nan nan nan nan nan nan nan nan nan nan nan nan nan nan nan nan -0 -0 -0 -0 -0 -0 -0 -0 -0 -0 -0 -0 -0 -0 -0 -0 -0 -0 -0 -0 -0 -0 -11 -16 -10 -10 -4 -3 -3 -3 -3 -4 -4 -5
nan nan nan nan nan nan -2 -9 -6 -6 -11 -10 -11 -11 -10 -15 -12 -12 -13 -12 -12 -9 -9 -11 -11 -20 -29 -20 nan nan nan nan nan nan -5 -4 -12 -12 nan nan nan nan nan nan nan nan nan nan nan nan nan nan nan nan nan -0 -0 -0 -0 -0 -0 -0 -0 -0 -0 -1 -0 -0 -0 -0 -0 -0 -0 -0 -3 -13 -9 -9 -5 -3 -3 -3 -3 -3 -3 -4
nan nan nan nan nan -13 -5 -22 -18 -18 -10 -9 -6 -6 -10 -12 -11 -11 -11 -11 -11 -10 -9 -14 -14 -28 -23 -16 nan nan nan nan nan nan -7 -2 -20 -20 nan nan nan nan nan nan nan nan nan nan nan nan nan nan nan nan nan nan nan -0 -0 -0 -0 -0 -0 -0 -0 -1 -0 -0 -0 -0 -0 -0 -0 -0 -0 -6 -9 -9 -7 nan nan nan -3 -3 -3 -4
nan -27 -25 -26 -26 -22 -19 -21 -23 -23 -18 -7 -6 -6 -8 -15 -19 -19 -18 -15 -15 -14 -11 -9 -9 -10 -11 -20 nan nan nan nan nan nan -9 -1 -14 -14 nan nan nan nan nan nan nan nan nan nan nan nan nan nan nan nan nan nan nan -0 -0 -0 -0 -0 -0 -0 -0 -1 -0 -0 -0 -0 -0 -0 -0 -0 -0 -3 -8 -8 -11 nan nan nan nan nan nan -5
-35 -30 -25 -26 -26 -16 -16 -21 -14 -14 -19 -23 -24 -24 -26 -13 -1 -1 -1 -1 -1 -4 -5 -5 -5 -4 -28 nan nan nan nan nan nan nan -14 -8 -23 -23 nan nan nan nan nan nan nan nan nan nan nan nan nan nan nan nan nan nan nan -0 -0 -0 -0 -0 -0 -0 -0 -0 -0 -0 -0 -0 -0 -0 -0 -0 -0 -1 -7 -7 -8 nan nan nan nan nan nan nan
-8 -13 -14 -7 -7 -0 -0 -0 -0 -0 -0 -15 -19 -19 -12 -2 -0 -0 -12 -5 -5 -4 -4 -6 -6 -14 nan nan -15 -15 nan nan nan nan -36 -11 -26 -26 nan nan nan nan nan nan nan nan nan nan nan nan nan nan nan nan -27 -5 -5 -0 -0 -0 -0 -0 -0 -0 -0 -0 -0 -0 -0 -0 -0 -0 -0 -0 -0 -1 -4 -4 -6 -8 -8 nan nan nan nan nan
-0 -0 -0 -0 -0 -0 -0 -0 -0 -0 -0 -0 -12 -12 -5 -4 -11 -11 -12 -8 -8 -6 -5 -10 -10 -17 nan -13 -11 -11 nan nan nan nan nan -21 -15 -15 nan nan nan nan nan nan nan nan nan nan nan nan nan nan nan nan -29 -5 -5 -0 -0 -0 -0 -0 -0 -0 -0 -0 -0 -0 -0 -0 -0 -0 -0 -0 -0 -0 -2 -2 -3 -5 -5 -7 -10 nan nan nan
-0 -0 -0 -0 -0 -0 -0 -0 -0 -0 -0 -0 -0 -0 -0 -3 -3 -3 -5 -6 -6 -7 -7 -6 -6 -5 -11 -7 -14 -14 nan -24 nan nan nan -19 -7 -7 nan nan nan nan nan nan nan nan nan nan nan nan nan nan nan nan -56 -6 -6 -0 -0 -0 -0 -0 -0 -0 -0 -0 -0 -0 -0 -0 -0 -1 -0 -0 -0 -0 -1 -1 -2 -4 -4 -6 -9 -8 -8 -4
-0 -0 -0 -0 -0 -0 -0 -0 -0 -0 -0 -0 -0 -0 -0 -8 -2 -2 -3 -5 -5 -5 -2 -3 -3 -3 -5 -6 -15 -15 -20 -18 -34 -34 nan -22 -6 -6 nan nan nan nan nan nan nan nan nan nan nan nan nan nan nan nan -61 -0 -0 -11 -7 -9 -9 -0 -0 -0 -0 -0 -0 -0 -0 -0 -0 -2 -1 -1 -0 -0 -0 -0 -0 -1 -1 -5 -7 -7 -7 -4
-6 -0 -0 -0 -0 -0 -0 -0 -0 -0 -0 -0 -0 -0 -0 -15 -4 -4 -4 -8 -8 -6 -7 -3 -3 -3 -4 -10 -12 -12 -17 nan nan nan nan -17 -10 -10 nan nan nan nan -13 -7 -7 -14 nan nan nan nan nan nan nan nan nan nan nan nan nan nan nan nan -0 -0 -0 -0 -0 -0 -0 -0 -0 -1 -1 -1 -1 -0 -0 -0 -0 -0 -0 -0 -1 -5 -5 -5
nan nan nan nan nan nan nan nan -5 -5 -0 -0 -0 -0 -0 nan nan nan nan nan nan -15 -11 -7 -7 -5 -3 -2 -3 -3 -13 nan nan nan nan -11 -11 -11 nan -12 -12 -12 -12 -1 -1 -4 -14 nan nan nan nan nan nan nan nan nan nan nan nan nan nan nan -0 -0 -0 -0 -0 -0 -0 -0 -0 -0 -1 -1 -2 -0 -0 -0 -0 -0 -0 -0 -1 -3 -3 -6
nan nan nan nan nan nan nan nan nan nan nan nan nan nan -2 -0 -3 -3 -4 -4 -4 -7 -8 -6 -6 -2 -1 -1 -1 -1 -3 nan -22 -22 -15 -7 -4 -4 -5 -4 -4 -3 -13 -6 -6 -4 -2 -7 -7 -13 nan nan nan nan nan nan nan nan nan nan nan nan nan -0 -0 -0 -0 -0 -0 -0 -0 -0 -0 -0 -0 -0 -0 -0 -0 -0 -0 -0 -0 -1 -1 -5
nan nan nan nan nan nan nan nan nan nan nan nan -13 -13 -9 -4 -0 -0 -2 -4 -4 -3 -1 -2 -2 -1 -2 -3 -4 -4 -6 -12 -3 -3 -5 -4 -2 -2 -5 -4 -4 -4 -6 -6 -6 -4 -2 -2 -2 -4 nan nan nan nan nan nan nan nan nan nan nan nan nan -5 -5 -1 -0 -0 -0 -0 -0 -0 -0 -0 -0 -0 -0 -0 -0 -0 -0 -0 -0 -0 -0 -3
nan nan nan nan nan nan nan nan nan nan nan -14 -9 -9 -7 nan nan nan nan nan nan nan nan -2 -2 -0 -1 -1 -3 -3 -6 nan -11 -11 -4 -1 -2 -2 -2 -2 -2 -3 -2 -2 -2 -4 -3 -5 -5 -5 -6 nan nan nan nan nan nan nan nan nan nan nan nan nan nan -3 -2 -1 -1 -1 -0 -0 -0 -0 -0 -0 -0 -0 -0 -0 -0 -0 -0 -0 -0 -2
nan -4 nan nan nan nan nan nan -28 -28 -11 -16 nan nan nan nan nan nan nan nan nan nan nan nan nan -10 -4 -4 -1 -1 -2 nan -10 -10 -2 -1 -1 -1 -1 -4 -4 -3 -1 -2 -2 -3 -6 -11 -11 -4 -3 -7 nan nan nan nan nan nan nan nan nan nan nan nan nan nan -5 -1 -1 -1 -2 -1 -0 -0 -0 -0 -0 -0 -0 -0 -0 -0 -0 -0 -0 -1
-7 -9 -14 -25 -25 -14 -9 -7 -4 -4 -11 nan nan nan nan nan nan nan nan nan nan nan nan nan nan nan -13 -3 -1 -1 -2 nan nan nan -2 -2 -0 -0 -1 -3 -3 -3 -1 -2 -2 -3 -2 -6 -6 -5 -3 -6 nan nan nan nan nan nan nan nan nan nan nan nan nan nan nan -6 -1 -1 nan nan -2 -2 -1 -0 -0 -0 -0 -0 -0 -0 -0 -0 -0 -0
-4 -3 -9 -15 -15 -5 -1 -3 -5 -5 nan nan nan nan nan nan nan nan nan nan nan nan nan nan nan nan nan nan -3 -3 nan nan nan nan nan nan -1 -1 -1 -2 -2 -2 -1 -1 -1 -1 -1 -2 -2 -2 -7 nan nan nan nan nan nan nan nan nan nan nan nan nan nan nan nan nan nan nan nan nan nan nan -3 -0 -0 -0 -0 -0 -0 -1 -1 -0 -0 -0
-2 -2 -4 -10 -10 -13 -7 -6 -8 -8 -11 nan nan nan nan nan nan nan nan nan nan nan nan nan nan nan nan -5 nan nan nan nan nan nan nan nan nan nan nan -2 -2 -3 -4 -2 -2 -1 -1 -1 -1 -1 -4 nan -6 -6 nan nan nan nan nan nan nan nan nan nan nan nan nan nan nan nan nan nan nan nan nan -1 -1 -1 -0 -0 -0 -1 -1 -1 -1 -1
-4 -5 -6 -8 -8 nan nan -4 nan nan nan nan nan nan nan -13 -22 -22 nan nan nan nan nan nan nan nan nan nan nan nan nan nan nan nan nan nan nan nan nan nan nan nan nan -7 -7 -2 -1 -1 -1 -1 -1 -4 nan nan nan nan nan nan nan nan nan nan nan nan nan nan nan nan nan nan nan nan nan nan nan nan nan nan -2 -2 -2 -1 -2 -2 -2 -1
-3 -7 nan -2 -2 nan -3 nan nan nan nan nan -6 -6 -4 -2 -12 -12 nan nan nan nan nan nan nan nan nan nan nan nan nan nan nan nan nan nan nan nan nan nan nan nan nan nan nan nan -1 -1 -1 -1 -1 -2 -3 -3 -5 nan nan nan nan nan nan nan nan nan nan nan nan nan nan nan nan nan -11 -11 -8 -8 -8 -8 -4 -3 -3 -1 -1 -2 -2 -4
-2 nan -10 -3 -3 nan -3 nan nan nan nan nan -10 -10 -2 -1 -3 -3 -11 nan nan nan nan nan nan nan nan nan nan nan nan nan nan nan nan nan nan nan nan nan nan nan nan nan nan nan nan -1 -1 -1 -2 -2 -2 -2 -2 -7 -7 -4 -2 -6 -6 nan nan nan nan nan nan nan nan nan nan -5 -4 -4 -8 -11 -23 -23 -21 nan nan -3 -1 -2 -2 -9
-0 -1 -3 nan nan nan nan nan nan nan nan nan -4 -4 -1 -2 -1 -1 -5 nan nan nan nan nan nan nan nan nan nan nan nan nan nan nan nan nan nan nan nan nan nan nan nan nan nan nan nan -1 -1 -1 -2 -3 -2 -2 -3 -7 -7 -7 -5 -9 -9 nan nan nan nan nan nan nan nan nan -6 -8 -18 -18 -18 nan nan nan nan nan nan nan -0 -0 -0 -4
-2 -3 -6 nan nan nan nan -17 nan nan nan -10 -5 -5 -10 nan nan nan -3 nan nan nan nan nan nan nan nan nan nan nan nan nan nan nan nan nan nan nan nan nan nan nan nan nan nan nan nan -2 -2 -2 nan -3 -1 -1 -2 -3 -3 -7 -10 -10 -10 -7 -5 nan nan nan nan nan nan nan nan nan nan nan nan nan nan nan nan nan nan nan -1 -0 -0 -1
-5 -7 nan -18 -18 nan nan -22 nan nan nan -12 -9 -9 nan nan nan nan -4 nan nan -6 nan nan nan -7 -5 nan nan nan nan nan nan nan nan nan nan nan nan nan nan nan nan nan nan nan nan nan nan nan nan -3 -1 -1 -1 -2 -2 -5 -12 -14 -14 -7 -4 nan nan nan nan nan nan nan nan nan nan nan nan nan nan nan nan nan nan nan -1 -0 -0 -0
nan nan -12 -13 -13 -14 -17 -17 -15 -15 nan -11 nan nan nan nan nan nan -8 nan nan -7 nan -6 -6 -3 -3 nan nan nan nan nan nan nan nan nan nan nan nan nan nan nan nan nan nan nan nan nan nan nan nan -3 -1 -1 -1 -2 -2 -3 -6 -8 -8 -9 nan nan nan nan nan nan nan nan nan nan nan nan nan nan nan nan nan nan nan nan nan -0 -0 -0
nan -10 -10 -13 -13 -14 -8 -11 -14 -14 nan nan nan nan nan nan nan nan nan nan nan nan nan -7 -7 -2 -1 nan nan nan nan nan nan nan nan nan nan nan nan nan nan nan nan nan nan nan nan nan nan nan nan nan -1 -1 -2 -2 -2 -2 -4 -5 -5 -9 nan nan nan nan nan nan nan nan nan nan nan nan -2 nan nan nan nan nan nan nan nan -0 -0 -0
nan -11 -12 -13 -13 -11 -12 -13 -13 -13 nan nan nan nan nan nan nan nan nan nan nan nan nan nan nan -3 -2 -2 nan nan nan nan nan nan nan nan nan nan nan nan nan nan nan nan nan nan nan nan nan nan nan nan nan nan nan -4 -4 -2 -2 -4 -4 -5 -1 -2 -2 nan nan nan nan nan nan nan nan nan -1 nan nan nan nan nan nan nan nan nan nan -0
-8 -7 -9 -10 -10 -10 -11 -13 -13 -13 -13 nan nan nan nan nan nan nan nan nan nan nan nan nan nan nan nan nan -4 -4 nan nan nan nan nan nan nan nan nan nan nan nan nan nan nan nan nan nan nan nan nan nan nan nan nan nan nan -3 -2 -2 -2 -2 -1 nan nan nan nan nan nan nan nan nan -1 -1 -1 nan nan nan nan nan nan nan nan nan nan -0
nan nan nan nan nan -10 -10 -11 -12 -12 -13 nan -13 -13 nan -9 -0 -0 -10 nan nan nan nan nan nan nan nan nan nan nan nan nan nan nan nan nan nan nan nan nan nan nan nan nan nan nan nan nan nan nan nan nan nan nan nan nan nan nan -6 -5 -5 -3 -5 nan nan nan nan nan nan nan nan nan -2 -2 -1 -2 nan nan nan nan nan nan nan nan nan nan
nan nan nan nan nan nan -11 -11 -10 -10 -9 -10 -9 -9 -13 -14 -21 -21 nan nan nan nan nan nan nan nan nan nan nan nan nan nan nan nan nan nan nan nan nan nan nan nan nan nan nan nan nan nan nan nan nan nan nan nan nan nan nan nan nan nan nan nan nan nan nan nan nan nan nan nan nan nan nan nan -2 -0 -4 -4 nan nan nan nan nan nan nan nan
nan nan nan nan nan nan -12 -12 -8 -8 -8 -6 -6 -6 -7 -16 nan nan nan nan nan nan nan nan nan nan nan nan nan nan nan nan nan nan nan -10 -6 -6 -9 nan nan -7 -4 nan nan nan nan nan nan nan nan -21 nan nan -6 nan nan nan nan nan nan nan nan nan nan nan nan nan nan nan nan nan -3 -3 -1 -0 -2 -2 nan nan nan nan nan nan nan nan
Wind_Speed
4 4 5 6 6 6 6 7 8 9 9 9 9 9 9 9 9 9 10 10 10 9 10 10 11 12 14 17 20 23 26 27 27 28 28 28 28 28 28 27 27 27 26 26 26 26 26 26 25 24 24 22 21 21 20 19 19 19 19 19 20 20 21 21 21 22 23 24 24 23 22 21 20 19 18 18 17 18 18 20 21 22 22 23 23 24
4 4 4 5 5 5 6 7 7 8 9 9 9 9 10 10 9 8 8 9 9 9 10 11 11 12 13 14 18 22 25 26 28 28 29 29 29 29 28 28 28 28 27 26 26 26 25 26 25 25 24 23 22 21 20 19 18 18 18 18 19 19 20 20 21 22 23 24 24 23 22 20 19 18 18 18 18 19 19 20 22 23 23 24 24 25
4 4 4 4 5 5 5 6 6 6 7 8 9 9 10 10 9 9 8 9 9 9 10 11 11 12 12 12 16 21 24 26 27 28 29 29 29 29 29 29 28 28 27 27 26 26 25 25 25 24 24 23 22 22 20 19 18 17 16 16 17 18 19 20 20 21 21 22 22 22 21 19 18 17 18 19 20 20 21 21 22 24 24 25 25 25
4 5 5 4 4 4 5 6 6 6 6 7 8 9 9 8 8 8 8 9 9 10 10 11 11 12 11 11 14 19 23 25 27 28 28 28 29 29 28 28 28 28 27 27 26 26 26 25 24 24 23 23 23 23 22 20 18 16 15 15 16 17 18 19 19 20 20 20 20 20 19 19 18 18 19 19 20 20 21 21 23 24 25 25 25 25
4 4 5 4 4 4 4 5 5 6 6 6 7 7 7 6 6 7 8 9 9 10 10 10 11 11 10 10 13 17 22 25 27 27 28 28 28 28 28 28 28 27 27 27 27 26 26 25 24 24 23 23 23 23 23 21 19 17 15 15 16 16 17 18 19 19 19 20 20 20 20 19 19 19 19 19 19 20 21 22 23 24 25 26 26 26
4 4 4 4 4 4 4 4 5 5 5 5 5 5 6 6 6 6 7 8 8 9 8 8 9 9 10 10 13 17 22 24 26 27 27 27 28 28 28 28 27 27 27 27 27 27 26 26 25 24 23 23 23 23 23 22 20 18 16 16 16 17 18 18 19 19 20 20 20 20 20 20 20 19 19 19 19 19 20 21 23 25 26 26 26 26
4 3 4 3 3 3 3 4 4 5 5 5 5 5 6 5 5 6 6 7 7 7 7 7 8 8 9 10 13 16 19 21 23 24 25 26 27 27 27 27 28 28 27 27 27 26 26 26 25 24 24 23 23 23 24 23 21 19 17 17 17 17 18 19 19 20 20 20 21 20 20 20 20 19 19 19 19 19 19 21 23 24 26 27 27 27
5 4 3 4 4 3 3 3 4 4 5 5 5 6 6 6 5 5 6 6 6 5 6 7 7 7 7 9 11 13 14 15 17 18 20 21 23 24 25 26 27 27 27 26 26 25 25 25 25 24 24 23 23 23 24 24 23 21 19 18 18 18 18 19 19 20 21 21 21 21 21 20 20 19 19 19 19 18 19 20 22 24 26 27 27 27
7 6 5 4 4 4 4 4 4 4 5 5 5 6 7 7 7 6 5 5 5 5 5 6 7 8 7 7 9 11 12 13 13 14 16 16 17 19 22 23 24 25 25 25 25 24 24 24 24 24 24 23 23 23 24 24 24 23 21 20 19 19 19 19 19 20 20 21 21 21 21 21 20 19 19 19 19 18 18 19 21 23 25 27 28 28
7 7 6 5 4 4 5 5 4 4 4 4 5 5 5 7 7 7 7 6 5 5 5 6 7 8 8 7 7 9 11 13 15 17 18 18 19 21 22 22 21 22 24 24 24 24 23 23 23 23 23 23 23 23 23 23 23 23 22 21 20 19 19 19 19 20 20 21 22 22 22 21 20 20 19 19 19 19 19 19 20 21 23 25 27 28
5 5 5 5 4 4 4 4 4 4 4 5 4 4 4 4 6 7 9 8 7 6 5 5 6 7 8 8 8 8 10 11 12 14 16 18 21 22 22 21 21 21 23 23 23 23 23 23 23 23 23 23 23 22 22 22 22 22 22 22 21 20 20 19 19 20 20 21 22 22 22 22 21 20 19 19 19 19 19 19 19 20 21 23 26 28
4 4 4 4 4 4 4 4 4 4 4 4 5 5 4 4 4 6 8 9 9 8 8 6 6 5 6 8 8 8 8 9 9 9 10 12 14 15 16 16 16 17 19 19 20 21 22 23 23 23 22 21 21 21 21 21 21 22 22 22 22 21 21 20 20 20 20 21 22 23 23 22 22 21 20 19 18 19 19 19 19 19 19 21 23 26
4 4 4 4 4 4 4 4 4 4 4 4 5 6 6 5 4 5 6 8 9 8 8 8 7 6 5 6 6 6 7 7 7 7 8 9 10 10 11 11 11 11 12 13 14 15 19 21 21 21 21 20 20 20 21 20 21 22 23 24 24 23 22 21 21 21 21 22 22 23 23 23 22 21 20 19 18 18 19 19 19 19 18 19 21 23
4 4 4 4 4 4 4 4 5 5 4 4 5 5 6 5 5 5 6 7 8 7 7 8 8 7 5 6 5 5 6 6 6 7 8 8 8 8 9 10 10 10 10 11 11 12 15 16 16 17 18 18 19 19 19 19 21 22 23 24 25 25 24 23 22 22 22 22 23 23 23 23 22 21 20 19 18 18 18 18 19 19 18 18 19 21
5 5 5 6 5 5 5 5 5 5 5 5 5 5 6 6 5 5 6 8 8 7 7 8 9 8 5 5 5 5 5 5 6 7 8 8 8 7 8 10 10 10 10 10 11 12 14 13 13 13 14 15 16 17 18 19 20 22 23 24 25 25 25 24 23 23 23 23 23 23 23 23 22 21 20 19 18 18 17 17 18 18 18 17 18 19
5 5 6 6 6 6 6 5 6 6 6 6 5 6 6 7 6 6 6 8 8 7 7 8 9 8 6 5 4 5 5 5 5 6 9 9 8 7 8 9 11 11 10 10 11 11 11 11 11 12 12 15 18 20 21 21 21 22 23 23 24 24 24 24 24 23 23 23 24 23 23 22 21 20 19 18 18 17 17 17 17 17 16 16 16 17
4 5 6 7 7 7 6 6 6 6 6 6 6 6 6 7 7 7 7 8 7 7 6 6 7 7 6 6 5 5 5 6 6 7 9 10 9 8 7 8 10 11 10 10 11 10 10 10 10 11 11 15 18 21 22 22 22 22 23 23 24 24 23 23 23 24 23 23 23 23 23 22 21 20 18 17 17 16 16 16 16 16 16 16 16 16
5 5 6 7 7 7 7 6 6 5 6 6 6 6 6 6 7 7 7 7 7 7 7 6 6 6 7 7 6 5 5 6 6 7 8 10 9 8 7 8 9 10 10 10 10 10 9 9 10 11 13 18 21 23 23 22 22 22 23 24 24 24 23 23 23 23 24 24 23 23 23 22 21 19 18 17 16 16 16 16 16 16 16 16 16 15
5 5 6 7 7 7 7 7 6 6 6 6 6 7 8 7 7 8 8 8 8 8 7 7 6 6 7 8 8 7 6 6 7 8 9 10 10 9 7 8 9 10 10 10 10 10 9 9 11 14 18 21 23 24 24 23 22 22 23 24 24 24 24 23 22 22 23 24 24 24 23 22 21 19 17 16 16 16 16 16 16 16 16 16 16 16
6 5 5 6 7 7 7 7 7 7 8 8 8 8 8 8 8 8 8 8 8 7 6 7 7 7 7 8 9 8 7 7 8 9 9 10 10 9 7 7 8 10 10 10 10 10 9 8 9 12 17 20 22 24 25 24 24 23 23 24 24 24 24 23 22 22 22 23 24 25 24 23 21 19 17 16 16 16 16 16 16 16 16 16 16 17
7 7 5 5 6 7 7 6 7 8 9 10 9 9 8 8 8 8 8 8 8 7 6 6 7 8 7 9 10 9 8 7 7 8 7 8 8 8 6 6 7 8 10 10 10 9 8 7 7 9 13 18 22 24 25 25 25 25 25 25 25 25 25 24 23 22 21 22 23 25 25 24 22 20 18 17 16 16 16 16 16 16 16 16 16 16
7 7 7 7 7 8 9 9 9 10 11 10 9 8 7 8 8 8 8 7 7 8 8 8 9 8 8 9 10 9 7 6 6 7 6 8 8 8 6 6 6 7 9 9 9 9 7 6 6 8 13 19 23 25 26 26 26 26 26 25 25 25 25 24 23 22 21 21 23 24 26 26 24 22 19 18 17 16 16 16 16 16 16 16 16 16
7 8 8 7 7 8 9 9 9 9 9 9 9 8 6 7 7 8 7 7 7 8 8 8 8 8 8 8 8 8 6 6 6 6 6 7 7 6 6 6 6 7 8 8 8 8 7 7 7 9 13 19 23 25 26 26 27 26 26 26 25 25 24 24 23 22 21 21 22 24 26 27 26 24 21 19 17 17 16 16 16 16 16 15 15 15
7 7 7 7 7 8 8 8 8 7 7 7 7 7 7 7 7 7 6 6 6 7 7 8 8 8 7 7 7 6 5 4 4 4 4 6 6 6 6 6 7 8 9 9 8 8 8 8 8 8 10 17 21 24 25 26 26 26 26 26 25 24 24 23 22 22 21 21 21 23 25 27 27 25 22 19 18 17 16 16 16 16 16 15 15 14
6 7 7 8 9 11 11 11 11 11 10 8 7 7 7 8 8 8 7 6 6 7 7 8 8 7 5 5 6 5 4 4 3 3 4 5 6 6 6 6 6 7 8 8 7 7 7 7 8 8 9 13 17 21 23 24 24 25 25 25 25 24 23 23 22 22 21 21 22 23 25 27 27 25 21 19 17 16 16 15 15 16 15 15 14 14
11 11 12 14 17 19 21 21 21 21 20 15 12 9 8 8 8 6 5 5 6 7 7 7 7 6 5 5 5 6 5 4 3 3 4 4 5 6 7 6 5 6 7 7 6 6 6 7 8 8 8 10 13 17 19 20 21 22 23 23 23 23 23 23 22 22 22 22 22 23 25 26 25 23 19 17 16 15 15 15 15 15 15 14 14 13
17 19 20 21 22 23 24 24 24 24 25 22 19 15 11 9 7 7 6 6 6 7 7 7 7 6 5 5 6 6 6 5 4 3 3 4 5 6 6 6 5 5 7 7 6 6 7 8 8 8 7 7 9 11 15 16 18 19 20 21 22 23 23 22 22 23 23 23 23 24 24 25 23 20 16 14 13 13 13 14 14 14 14 13 12 11
17 18 19 20 21 22 22 23 23 23 23 23 23 21 15 9 7 7 7 7 6 7 7 7 7 7 6 6 6 6 6 5 4 4 3 4 5 6 6 6 5 5 6 6 6 6 7 7 7 7 7 6 6 6 9 12 14 16 17 18 20 22 23 23 22 22 23 23 24 24 24 22 20 17 14 13 12 12 12 12 13 13 12 11 9 7
15 16 17 19 19 20 20 20 20 20 21 22 22 20 14 8 6 7 7 7 7 7 7 7 7 7 7 7 7 7 6 5 4 4 4 4 5 6 5 5 5 5 5 5 5 5 6 6 5 5 5 5 4 4 6 9 11 12 13 16 17 19 21 22 22 22 21 21 22 22 22 20 18 15 13 13 13 12 12 13 12 11 9 8 7 6
10 12 13 14 15 15 15 14 14 15 18 19 19 18 13 8 6 6 7 7 7 7 7 7 7 7 6 6 6 6 5 4 4 4 4 5 5 5 5 5 5 5 5 5 5 5 5 5 4 3 3 4 4 4 5 6 7 8 9 12 13 15 18 21 21 21 19 19 19 20 20 18 16 14 14 14 14 14 14 14 13 10 7 6 6 5
8 9 9 9 9 9 9 9 9 11 13 14 14 13 10 8 6 6 6 6 6 6 6 6 6 6 6 6 6 5 4 4 5 5 4 4 5 5 4 5 6 5 4 5 5 5 5 5 4 3 2 3 4 5 5 5 6 6 6 8 8 10 15 18 19 19 17 17 17 18 18 17 15 14 14 14 15 15 15 15 13 10 6 6 5 5
9 9 8 8 7 7 7 7 7 7 8 8 8 8 8 8 7 6 6 6 6 5 5 6 6 6 6 6 6 6 5 5 6 7 6 5 4 4 4 5 6 6 5 5 5 5 5 5 4 3 2 3 4 4 5 5 5 5 6 6 6 8 12 15 16 16 15 14 14 15 15 15 14 13 13 14 15 15 15 15 14 11 7 6 5 5
8 8 7 7 7 7 7 7 7 6 6 6 6 6 7 7 7 7 7 6 6 6 6 6 6 7 7 7 7 7 6 6 7 8 8 6 4 4 4 6 7 7 6 5 5 5 4 5 4 4 4 4 4 4 4 5 5 4 4 5 5 6 10 11 12 13 13 12 12 11 11 11 11 12 12 13 14 15 15 15 14 12 9 7 5 5
8 8 8 8 7 7 7 7 7 6 6 5 5 6 6 6 7 7 7 7 6 6 5 6 7 7 7 8 8 7 7 6 8 9 9 6 5 5 6 7 7 7 7 6 5 5 4 5 6 6 6 6 5 4 4 4 4 4 4 4 4 5 6 8 9 10 11 10 9 8 8 7 8 9 10 11 12 13 14 14 14 14 13 9 6 5
8 8 8 7 7 7 7 6 6 6 5 5 5 6 6 6 7 7 7 7 6 6 5 6 6 7 7 7 7 7 7 7 8 10 9 7 6 6 6 6 6 6 6 6 6 5 5 6 7 8 8 7 6 5 4 4 3 3 3 4 4 5 5 6 7 8 9 8 7 6 5 5 5 6 7 9 10 12 13 13 13 14 14 13 10 7
8 8 7 6 6 6 6 6 5 5 5 5 5 6 7 7 7 7 7 7 7 7 7 7 7 7 7 7 7 8 9 8 9 10 10 8 6 6 6 6 6 6 6 7 7 6 6 7 7 8 9 8 7 6 5 3 3 3 4 4 5 5 5 6 6 7 7 7 7 7 6 5 5 5 5 8 10 12 12 12 12 13 15 15 14 12
7 7 6 5 6 6 7 6 6 5 5 6 7 7 8 8 8 7 7 7 7 7 7 7 7 7 8 7 7 8 9 9 9 10 10 8 7 6 6 6 7 7 6 7 7 7 7 8 8 8 8 7 7 6 6 5 4 4 4 4 4 5 5 6 6 6 6 7 7 7 7 5 5 5 6 8 10 11 11 12 12 12 14 16 16 16
7 7 6 6 6 7 7 7 7 7 7 7 8 8 9 8 8 8 7 7 7 7 7 7 7 7 9 10 10 9 10 10 11 12 11 9 7 6 6 7 7 7 6 6 7 7 7 8 8 8 7 7 7 8 7 6 5 5 4 4 4 5 5 5 5 6 6 7 8 8 8 7 6 6 6 6 6 6 7 7 8 9 12 13 16 17
7 7 7 7 7 7 7 7 7 7 7 8 8 9 9 9 9 8 7 6 7 7 7 7 6 7 8 10 11 11 12 12 12 11 11 8 7 6 6 7 7 7 7 6 6 7 7 7 7 7 7 7 8 8 7 6 5 5 5 5 5 5 4 4 5 5 6 6 7 8 8 6 6 5 5 4 4 4 4 5 5 6 7 8 10 13
7 7 7 7 7 7 7 7 7 7 7 8 9 10 10 9 7 6 6 6 7 7 7 7 7 7 7 8 9 10 11 10 10 9 8 7 5 5 5 6 6 7 7 6 6 7 7 7 8 8 8 7 8 8 7 6 6 5 6 5 5 4 4 4 5 5 6 6 6 7 6 5 5 4 4 4 3 3 4 4 5 6 6 5 6 7
7 7 7 7 7 7 7 7 7 7 8 8 8 8 8 7 7 7 7 7 8 7 7 7 7 7 7 7 8 8 9 9 9 9 7 7 7 7 6 6 6 6 6 7 7 7 7 8 8 8 8 8 8 9 9 8 8 8 8 6 6 6 5 5 5 5 6 6 6 6 6 5 5 5 4 4 3 3 3 4 5 6 7 6 5 5
9 8 8 7 7 6 6 6 7 7 7 7 7 7 7 7 7 8 8 8 8 7 7 6 6 7 8 8 8 8 8 8 8 8 8 9 8 8 7 7 6 6 6 7 7 8 8 8 8 8 8 7 8 8 8 8 8 8 7 6 6 7 7 6 5 4 4 5 5 5 6 5 5 4 5 4 4 4 4 4 5 7 8 6 6 5
8 8 8 7 7 7 7 7 7 7 6 6 7 7 7 6 7 8 9 8 8 8 8 7 7 8 9 9 8 8 7 7 7 8 8 8 9 8 8 8 8 7 6 6 7 8 8 8 8 7 7 7 7 8 9 9 8 7 6 6 6 5 4 4 3 3 3 4 5 5 5 5 5 5 5 5 4 4 3 4 5 7 7 7 6 5
8 8 7 7 7 6 6 6 6 6 6 6 7 7 6 6 6 7 8 8 8 8 8 7 7 8 8 8 8 8 8 7 7 8 8 9 9 8 8 8 8 7 5 5 6 7 7 8 7 7 7 7 7 8 8 9 8 7 6 6 5 5 4 4 4 4 4 5 4 4 4 4 4 4 5 5 4 4 3 3 4 5 6 7 6 6
7 7 7 6 6 6 6 6 6 6 6 7 7 6 6 6 6 7 7 7 7 7 6 7 7 7 7 7 7 7 8 8 7 7 7 8 10 10 9 7 7 6 6 6 6 6 7 7 7 7 6 6 7 8 8 8 8 8 7 6 6 6 6 6 5 5 5 5 5 4 4 3 4 4 5 5 4 4 3 3 4 4 5 6 6 6
7 7 7 6 6 6 7 7 7 6 6 6 6 6 5 6 6 6 7 7 7 7 7 7 7 7 7 8 8 7 8 8 8 8 7 7 6 6 6 6 6 6 6 6 6 7 7 7 8 7 7 7 7 8 8 8 8 7 7 6 6 5 6 6 5 5 5 5 5 4 4 4 4 5 5 5 5 4 3 3 3 3 4 5 6 6
7 7 7 6 6 7 7 7 7 7 7 7 6 6 6 6 6 6 6 5 6 6 6 6 7 7 8 8 8 8 8 9 9 8 8 7 7 6 5 5 5 6 5 6 6 7 8 8 8 8 7 7 7 7 7 7 7 7 7 6 5 5 5 4 4 4 5 4 4 4 4 4 4 5 6 6 5 5 4 3 2 2 3 4 5 6
7 7 7 7 7 7 7 7 7 7 7 7 7 6 6 7 7 7 6 5 5 6 7 7 7 7 8 8 8 8 9 9 9 9 9 8 7 6 6 5 5 5 6 6 7 7 7 8 8 8 8 7 6 6 6 6 6 6 5 5 4 5 5 5 4 4 5 5 5 5 4 4 4 5 6 6 6 5 4 4 3 2 2 3 4 5
7 7 7 7 7 7 7 7 7 7 7 7 7 7 7 8 9 9 6 6 5 6 6 7 7 8 8 8 8 8 9 9 9 9 9 8 7 6 6 6 6 6 6 6 6 5 5 6 7 8 7 7 6 7 7 7 6 5 4 4 4 4 5 5 5 5 5 6 6 5 4 4 4 5 5 6 6 5 5 5 4 3 2 3 3 4
7 7 7 7 7 7 7 7 7 7 7 8 8 8 8 7 6 5 5 5 5 5 6 7 7 8 8 9 9 9 9 9 8 8 8 7 7 6 5 6 6 7 7 6 6 5 5 5 5 5 6 7 6 6 6 7 6 4 3 3 3 4 4 5 5 5 5 5 6 6 5 4 4 4 4 5 5 5 6 5 4 3 3 3 3 3
7 7 7 7 7 7 7 7 7 7 7 8 8 8 8 7 6 4 4 5 5 6 6 7 7 8 9 9 9 9 9 8 8 9 8 7 6 6 6 6 7 7 8 7 6 6 5 5 5 4 4 5 6 5 4 5 5 4 3 3 3 3 4 4 5 5 5 5 5 5 5 5 5 4 4 4 4 5 5 5 4 3 3 3 3 3
Wind_Direction
317 319 320 324 323 321 321 330 330 328 325 327 326 324 323 322 320 317 317 317 317 317 318 317 316 315 314 314 314 314 314 314 313 312 311 310 309 307 306 305 304 303 302 300 298 296 293 288 282 277 271 268 267 267 267 268 269 272 275 278 281 283 285 285 286 286 286 287 287 286 282 276 269 261 254 246 239 234 231 230 227 223 218 215 215 215
315 315 314 321 322 320 317 327 328 327 325 324 323 322 322 321 320 319 319 318 319 319 319 317 315 313 311 310 311 312 312 311 311 311 310 309 308 307 306 305 304 302 301 300 298 297 294 291 285 280 274 271 268 266 264 264 265 267 271 274 278 281 283 284 284 284 284 285 286 286 286 282 276 269 262 254 248 243 240 236 231 226 221 219 218 218
317 315 315 320 321 320 317 322 324 323 320 318 318 318 319 319 320 321 322 321 321 319 317 316 314 312 310 308 308 309 309 309 309 309 309 309 308 308 307 306 305 304 302 301 299 298 296 292 287 282 278 276 273 270 266 263 263 264 267 271 274 277 279 281 281 281 281 282 283 284 284 282 280 275 268 261 255 250 245 240 234 229 225 222 221 220
315 315 317 320 318 315 313 317 318 317 316 313 313 314 317 318 319 319 320 318 317 315 313 312 311 310 309 307 308 308 308 308 309 309 309 309 309 309 309 309 308 307 305 304 302 299 297 293 288 284 280 279 277 275 270 266 263 262 264 267 271 274 276 278 278 279 279 279 279 280 279 279 277 275 271 265 259 253 247 241 236 231 227 225 223 222
314 313 317 318 315 312 311 313 313 313 311 309 310 313 315 315 315 315 314 313 312 311 310 309 309 308 307 307 307 308 309 310 310 311 311 311 311 311 311 311 311 311 310 308 306 303 299 295 289 284 280 278 277 275 272 268 265 263 263 266 269 271 274 275 276 277 277 277 277 276 276 275 274 273 271 267 262 256 249 244 238 232 229 226 225 224
312 312 314 314 312 311 312 312 313 312 310 308 309 310 311 310 309 309 309 309 308 307 306 306 306 306 306 307 308 309 310 311 312 313 312 312 312 312 312 312 313 314 314 313 311 309 305 300 294 288 282 278 275 273 272 269 266 264 263 265 267 269 271 273 274 275 275 275 275 274 273 273 271 270 269 267 264 259 253 247 240 235 230 227 226 225
308 309 311 307 305 305 308 310 312 313 312 312 312 311 309 306 305 303 302 302 302 303 302 302 303 305 307 308 309 310 312 312 313 312 312 311 311 311 311 312 313 314 315 316 316 315 313 310 305 299 291 284 279 275 272 270 268 265 263 263 264 266 268 270 271 273 273 274 273 272 271 270 269 268 267 266 264 261 256 250 244 238 232 229 227 226
309 310 310 309 308 308 307 308 312 314 313 313 314 314 312 308 305 301 298 297 299 301 303 304 305 306 308 309 310 311 311 311 311 310 310 310 309 309 309 310 311 313 314 316 318 319 320 320 317 312 306 299 292 285 279 276 272 268 264 263 262 263 265 267 268 270 271 272 271 271 270 268 268 267 266 264 262 260 257 253 247 241 236 231 228 227
311 313 314 315 315 315 314 313 315 316 315 314 313 313 313 311 309 306 304 303 304 306 307 308 308 308 307 308 308 308 308 307 307 308 308 308 309 309 309 309 310 311 313 315 318 320 323 324 323 322 319 314 307 300 292 286 280 275 269 265 262 261 262 264 265 267 269 270 270 269 268 267 266 265 264 263 261 258 256 253 249 244 239 234 230 228
313 314 315 316 317 317 315 315 317 318 316 310 307 307 308 311 312 312 313 312 312 311 309 307 308 308 308 307 306 306 305 304 305 305 307 308 309 309 309 309 311 312 314 316 317 319 321 322 323 324 323 321 319 314 307 299 291 284 276 270 265 263 262 262 263 265 266 268 268 268 267 265 264 263 263 262 259 257 255 252 250 246 241 237 233 231
311 311 310 311 312 311 308 310 312 314 314 308 304 301 302 309 314 316 315 315 315 314 310 307 307 309 311 310 308 306 305 304 304 306 308 309 309 310 310 311 312 314 316 316 317 318 318 319 320 320 321 322 322 321 318 312 305 296 288 280 273 268 264 264 264 265 266 267 268 267 266 265 263 262 262 260 258 256 254 252 249 246 242 239 236 234
302 302 302 303 305 306 305 304 305 308 313 312 312 311 313 317 317 314 311 312 314 315 312 309 308 308 309 308 307 306 305 304 305 307 309 309 310 311 312 313 315 316 317 317 316 316 316 316 316 316 317 318 319 320 321 319 315 310 303 295 286 278 272 269 268 267 268 268 268 267 266 264 262 261 260 259 258 256 254 252 249 247 243 240 238 236
290 293 296 298 300 303 305 307 310 312 316 316 315 314 315 318 316 309 304 305 309 313 313 309 308 307 305 302 302 303 305 304 305 306 308 307 309 311 311 311 311 313 314 313 311 311 312 313 312 312 312 312 314 316 318 319 319 317 314 308 301 294 285 279 274 271 270 269 268 267 266 264 261 260 258 257 257 255 254 252 250 248 245 242 239 238
292 294 297 299 301 303 305 307 308 310 312 312 309 307 306 309 308 305 300 301 305 309 310 306 305 305 305 300 298 299 303 304 304 305 304 304 306 308 308 305 304 305 307 304 302 302 305 307 308 308 309 308 309 311 312 314 317 317 316 314 311 306 298 289 281 275 271 270 269 267 265 263 260 258 256 255 255 254 253 252 251 249 247 244 241 239
297 300 301 302 303 304 305 306 306 305 305 305 303 302 302 303 303 303 302 303 306 308 308 304 303 303 302 301 301 302 303 302 303 304 303 301 302 304 305 301 300 300 301 298 296 296 300 301 300 300 303 303 303 303 303 307 310 312 313 313 312 310 306 299 291 281 273 270 268 267 265 262 259 256 254 253 253 253 252 251 250 249 247 245 243 240
299 302 302 303 303 303 304 305 305 303 303 302 302 301 302 302 303 303 303 303 305 307 307 306 305 304 301 299 301 302 302 300 300 301 303 300 300 302 302 299 297 297 297 294 293 293 295 294 294 294 296 296 297 298 298 300 303 306 307 308 309 310 311 307 301 291 281 273 269 266 263 261 258 255 252 251 251 251 251 251 250 249 247 245 242 239
301 302 302 302 302 302 303 302 300 299 301 300 299 297 297 299 302 302 300 300 302 302 301 303 304 305 304 304 301 300 302 299 299 299 300 297 298 298 297 294 293 293 294 291 289 289 291 290 291 291 291 292 293 294 294 296 297 299 301 302 304 306 309 310 307 302 294 283 274 267 263 260 257 255 252 251 250 251 251 251 250 249 248 245 242 238
301 301 301 300 301 302 305 304 301 300 299 299 299 297 296 296 298 298 297 296 295 294 293 293 294 297 301 302 302 302 305 299 298 298 297 294 295 295 294 289 288 289 290 287 286 286 287 287 287 288 289 290 290 291 291 291 292 294 295 297 298 300 303 306 307 307 303 295 285 276 267 261 257 254 253 252 251 251 251 251 251 250 248 246 243 239
300 299 300 300 300 301 302 302 302 302 301 300 300 300 298 297 296 295 293 291 288 286 286 286 285 287 291 293 296 300 302 298 297 298 297 295 294 294 293 288 287 287 287 285 285 285 286 285 285 287 289 290 290 290 289 289 289 289 290 292 294 296 298 300 303 304 305 303 297 288 277 267 260 255 252 252 252 253 252 252 251 250 249 247 244 240
295 294 294 297 298 298 296 296 297 299 299 298 297 295 293 293 292 291 290 288 285 281 280 281 282 284 288 290 293 296 300 300 299 297 295 292 291 291 291 287 287 287 287 285 285 286 286 284 286 288 290 291 291 291 290 289 288 287 287 288 290 292 293 295 297 300 302 303 301 296 288 277 267 258 253 252 252 252 252 251 251 250 249 247 244 241
290 288 286 289 291 292 292 293 293 294 293 293 290 287 284 285 286 286 286 286 285 283 280 279 280 284 290 291 292 294 299 300 298 295 292 288 287 286 288 285 284 284 285 284 284 285 285 285 286 289 291 292 292 292 292 291 289 288 287 287 287 288 289 291 292 295 297 300 300 298 294 284 274 263 255 252 251 251 250 250 249 249 248 247 245 242
284 284 284 283 283 284 286 289 289 289 288 287 284 280 279 280 281 283 285 286 286 284 283 281 282 284 287 285 286 287 291 288 286 286 287 283 283 284 286 283 282 282 283 284 286 287 287 287 286 288 291 293 294 294 294 293 291 289 287 286 285 285 285 286 287 289 292 295 296 297 295 288 280 270 259 253 250 249 249 248 248 247 247 246 245 243
272 277 282 282 280 280 283 285 286 285 284 280 277 274 275 277 280 282 285 283 281 280 279 278 278 277 275 274 276 278 276 271 271 275 280 281 284 286 287 286 284 283 282 285 288 290 292 291 289 289 291 293 294 294 294 293 292 291 289 286 284 283 282 282 283 284 286 289 291 292 292 288 281 273 262 255 250 247 247 246 246 245 245 245 245 244
264 270 275 276 276 277 279 282 283 284 282 276 273 272 273 273 274 276 277 276 275 275 276 276 274 272 269 270 274 276 273 268 266 271 278 282 285 287 288 287 285 283 283 284 287 290 292 292 290 289 290 292 292 292 293 293 292 292 291 288 286 283 281 279 279 280 280 282 284 286 287 285 281 274 264 255 249 246 245 245 244 243 242 243 243 243
271 273 275 279 283 287 291 293 294 295 295 291 286 282 279 277 276 276 276 277 278 277 277 276 275 275 277 280 284 285 284 279 274 273 279 283 285 285 285 284 282 282 283 284 286 288 290 289 289 288 288 288 289 290 291 292 294 295 295 293 290 286 281 278 276 275 274 275 277 279 281 281 279 274 265 256 250 246 245 244 243 242 241 241 241 242
293 294 295 297 298 299 301 301 301 302 303 302 300 297 293 290 288 287 287 287 286 284 282 280 281 283 289 291 292 293 294 294 286 277 278 283 284 284 283 282 281 281 284 286 287 286 285 286 286 287 286 284 286 288 291 294 298 302 304 303 299 294 287 280 275 271 270 270 270 272 274 275 275 272 266 258 251 247 244 243 242 241 240 239 240 240
300 301 302 303 304 304 304 304 304 304 304 304 304 304 302 302 300 298 296 296 295 294 290 291 292 294 294 294 294 295 298 298 292 281 273 280 283 284 283 284 285 286 288 288 285 281 279 281 283 285 284 281 283 287 293 299 306 311 316 315 313 308 300 290 280 273 269 267 266 266 267 269 271 272 271 267 260 254 249 246 243 241 239 239 239 239
303 306 307 307 307 306 305 305 305 305 305 305 306 307 307 306 304 301 298 300 301 299 294 295 296 296 296 295 294 295 295 295 292 287 281 284 284 285 286 288 290 291 291 289 285 279 275 275 277 279 279 278 280 288 298 307 313 318 322 323 322 319 313 303 292 282 273 268 265 262 261 262 265 270 276 277 275 270 262 255 248 244 239 237 237 238
307 309 309 308 307 306 306 305 304 304 304 306 307 309 311 308 302 298 296 299 298 294 289 289 289 290 291 291 291 292 291 291 292 296 302 295 288 286 289 292 293 293 293 292 289 283 274 271 270 272 275 282 289 300 307 314 317 318 319 323 324 323 319 313 305 295 283 275 268 262 258 257 259 265 272 277 279 277 272 266 260 252 241 235 232 232
310 310 308 307 306 305 305 303 301 301 302 305 307 309 309 304 296 291 290 290 287 284 283 283 284 286 289 291 292 291 291 293 301 310 316 301 291 287 291 294 296 297 301 301 298 293 288 283 278 275 277 294 305 313 315 316 314 313 313 319 323 324 323 319 313 306 296 285 274 266 259 256 256 260 266 270 273 273 272 270 268 264 252 239 230 225
313 311 308 307 306 304 301 298 296 297 300 303 305 307 306 300 292 285 283 282 280 279 281 283 286 288 292 295 296 296 296 301 309 314 314 299 291 290 297 299 300 300 302 307 306 303 302 299 296 293 290 303 309 311 311 308 308 308 309 314 319 324 326 323 319 313 306 295 283 272 263 258 256 258 262 265 267 267 267 267 267 266 260 245 231 222
313 311 308 306 304 301 297 295 295 295 296 299 301 302 301 299 296 291 287 286 286 286 287 288 290 292 294 294 294 294 296 299 306 309 311 301 294 293 300 302 303 301 298 302 300 298 302 303 307 311 310 307 305 303 301 300 299 299 303 310 314 321 326 325 322 318 314 304 293 282 272 264 259 259 261 262 263 263 263 262 262 262 259 249 236 223
312 309 306 302 300 297 295 294 293 293 292 294 296 299 303 304 303 301 297 295 295 295 293 294 294 295 294 290 288 286 287 291 301 308 313 308 301 298 301 302 302 301 300 297 291 288 292 298 305 309 307 302 299 295 293 290 288 289 295 304 310 318 325 326 322 319 316 311 306 299 288 277 270 266 263 263 262 262 261 259 258 257 256 251 240 225
310 306 301 298 295 293 292 291 290 289 290 293 299 306 310 309 307 305 302 298 295 293 290 291 291 292 291 289 286 285 286 291 301 309 315 308 301 298 300 300 300 301 303 301 298 294 291 295 300 303 303 301 298 291 284 281 281 285 291 300 307 313 320 322 318 313 312 312 311 309 304 294 288 281 271 267 264 262 260 257 255 253 252 251 244 229
306 302 297 294 291 290 289 289 289 290 294 301 309 313 314 311 307 303 299 296 293 288 283 281 281 282 283 284 287 290 293 297 303 306 308 301 297 296 297 297 299 302 303 303 303 302 297 296 298 300 301 302 300 295 283 275 276 284 293 299 302 307 312 313 311 308 307 309 308 307 305 299 293 286 278 273 269 265 262 258 254 251 249 248 244 236
300 297 293 293 293 295 295 296 299 305 313 317 318 316 313 308 303 299 296 294 292 290 286 281 277 275 275 279 285 290 294 296 298 299 298 295 293 294 293 294 298 301 301 300 300 300 298 297 297 297 297 298 299 299 295 289 289 295 300 301 301 302 304 304 303 303 304 306 307 305 301 294 287 281 278 277 275 273 270 264 257 251 247 245 242 237
299 298 300 304 308 311 312 314 319 325 327 324 319 315 310 304 300 297 294 292 290 289 288 284 280 276 274 275 278 282 286 289 291 291 291 289 288 288 287 290 293 294 294 295 296 297 297 295 294 294 293 293 294 297 301 305 306 305 301 300 298 298 297 297 297 297 299 301 302 301 298 294 289 284 281 280 280 279 276 269 260 252 245 243 240 237
306 309 314 317 319 318 318 320 323 324 324 320 315 310 306 299 295 291 290 290 289 288 288 286 283 280 278 277 277 276 278 280 281 283 284 283 280 279 279 283 286 286 285 286 287 289 290 291 291 291 291 289 289 291 296 301 303 302 298 294 290 287 286 289 291 293 296 298 298 298 297 295 294 292 289 285 284 284 282 278 268 256 244 241 237 234
311 313 315 316 316 315 315 316 317 317 316 313 310 306 301 295 291 289 289 292 294 293 291 288 286 284 281 280 280 279 279 278 279 279 280 277 272 268 270 276 280 283 283 280 279 278 279 281 284 286 289 290 290 291 292 293 294 294 296 296 292 285 280 283 288 292 293 295 295 296 295 295 296 296 295 291 290 291 293 294 286 271 251 240 234 231
308 308 307 307 308 308 309 309 310 311 311 309 306 303 299 297 296 299 303 305 305 303 298 292 289 286 284 283 282 282 281 280 280 279 279 274 268 263 263 269 275 280 282 280 276 273 272 273 275 277 280 284 287 289 290 289 288 290 295 298 297 294 291 291 291 290 289 290 290 290 289 291 295 297 297 293 292 294 299 303 298 287 270 248 232 224
305 303 301 301 302 302 302 303 304 305 306 306 305 304 303 307 313 317 317 315 313 310 307 304 300 297 294 288 284 281 280 278 277 277 276 272 269 266 265 267 270 274 277 277 275 272 269 270 270 272 272 276 279 282 283 283 284 286 288 289 289 290 293 290 287 284 285 287 287 286 284 289 293 295 294 290 289 289 292 299 300 295 285 263 240 222
302 301 300 300 300 299 297 297 298 300 302 303 304 306 311 317 320 319 316 314 313 311 311 311 310 308 305 299 293 288 283 280 278 276 275 271 268 265 264 265 266 268 271 274 273 271 268 267 267 268 269 271 274 278 279 281 281 281 279 279 283 287 289 284 278 274 278 285 287 287 288 291 293 292 289 287 286 286 288 292 294 293 289 275 255 233
299 298 297 296 295 293 292 294 296 298 300 301 304 306 311 314 313 310 308 307 307 308 309 310 309 307 304 302 300 298 294 287 282 279 277 271 267 263 262 262 262 264 266 271 273 273 271 268 266 266 265 266 269 273 277 280 281 280 274 273 277 283 287 282 277 275 277 282 285 288 291 294 294 293 292 289 288 288 292 296 297 294 291 283 269 248
294 293 292 290 289 288 288 291 293 296 298 301 302 304 304 302 300 300 300 300 301 303 306 307 306 303 300 298 299 301 302 299 293 286 280 274 268 263 262 261 261 261 259 263 271 275 278 274 270 267 264 263 264 266 270 275 278 278 275 271 268 267 269 276 281 285 286 285 284 284 286 290 293 295 295 292 290 290 295 302 305 303 299 292 281 265
289 289 289 289 290 291 291 293 295 297 299 299 300 300 298 295 294 294 294 296 299 302 306 308 307 305 302 301 302 303 304 304 303 299 291 283 276 272 266 263 263 263 259 258 262 269 275 277 276 274 270 263 260 261 264 269 272 274 275 272 268 265 264 271 276 280 282 283 283 281 281 288 294 298 297 294 292 290 292 301 308 310 309 305 294 280
287 289 291 292 293 294 295 296 298 298 298 297 296 295 294 292 290 289 289 292 297 303 306 308 307 305 303 303 304 305 305 304 304 303 302 296 289 282 272 265 261 259 259 259 259 260 263 268 272 275 275 269 263 259 259 263 267 270 273 273 273 272 272 275 279 281 281 281 282 285 291 300 306 306 302 298 295 292 288 292 301 310 315 314 306 293
290 292 295 296 297 297 297 298 298 298 296 296 295 295 294 292 290 288 287 290 297 304 308 307 305 302 300 301 302 302 302 302 303 303 304 302 301 298 292 282 272 265 262 263 262 261 259 260 263 266 270 271 269 267 263 261 262 265 269 273 275 278 280 283 284 282 279 280 284 291 304 315 316 312 306 300 297 295 294 296 301 310 318 320 316 306
292 295 298 299 300 300 299 298 297 296 295 296 297 297 296 293 292 292 292 297 303 306 308 306 304 300 298 297 296 296 297 298 300 302 304 305 306 306 306 305 300 293 285 280 276 271 265 259 256 255 257 262 268 272 272 267 262 261 265 271 277 281 284 286 285 284 283 286 292 299 309 315 315 311 306 301 298 298 301 306 310 316 323 326 325 318
293 295 297 298 298 297 296 297 297 296 296 298 298 298 297 294 294 295 297 302 305 305 304 302 300 298 296 295 295 294 295 296 297 299 302 304 307 309 310 313 315 314 310 303 296 289 281 269 257 247 238 241 253 267 275 273 267 261 260 266 274 280 284 285 286 287 290 293 297 301 306 305 304 301 299 297 296 299 303 307 311 316 319 325 328 325
291 291 292 292 293 293 294 295 297 297 298 299 299 299 298 296 295 295 295 298 300 300 298 297 296 294 293 293 294 295 296 296 297 298 299 303 305 308 310 316 320 321 318 316 313 311 306 299 282 258 233 227 234 251 272 276 275 269 259 258 262 267 272 277 280 283 288 292 296 299 300 299 296 294 291 292 295 299 302 304 306 309 312 318 326 331
289 288 288 288 289 290 292 294 297 298 298 299 299 298 298 299 298 297 296 297 298 298 295 293 291 289 288 290 291 293 295 296 297 298 300 302 304 306 310 317 321 322 319 317 317 317 317 316 312 299 268 244 236 238 259 276 281 280 270 259 254 256 263 270 275 282 288 290 292 294 294 294 292 290 288 291 296 299 300 301 301 301 306 317 326 333